Joplin, MO

12:58 PM CDT on September 23, 2019 (GMT -0500)
Joplin Regional

Weather History for KJLN - August, 2019

Change the Weather History Date:

Monday, August 19, 2019

  Actual Average Record
Temperature  
Mean Temperature 84 °F 80 °F  
Max Temperature 93 °F 91 °F 101 °F (1962)
Min Temperature 75 °F 68 °F 55 °F (1950)
Degree Days  
Heating Degree Days 0 0  
Month to date heating degree days 0 0  
Since 1 June heating degree days 1 5  
Since 1 July heating degree days 0 0  
Cooling Degree Days 19 15  
Month to date cooling degree days 269 296  
Year to date cooling degree days 1120 1267  
Since 1 June cooling degree days 967 1087  
Growing Degree Days 34 (Base 50)    
Moisture  
Dew Point 73 °F    
Average Humidity 69    
Maximum Humidity 82    
Minimum Humidity 56    
Precipitation  
Precipitation 0.00 in 0.11 in 3.13 in (2009)
Month to date precipitation 3.18 1.94  
Year to date precipitation 46.09 29.56  
Sea Level Pressure  
Sea Level Pressure 29.95 in    
Wind  
Wind Speed 5 mph (SSE)    
Max Wind Speed 13 mph    
Max Gust Speed 17 mph    
Visibility 10 miles    
Events      
T = Trace of Precipitation, MM = Missing Value Source: NWS Daily Summary

Daily Weather History Graph

Daily Weather History Graph

Search for Another Location

Airport or City:

Astronomy

Aug. 19, 2019 Rise Set
Actual Time 6:37 AM CDT 8:04 PM CDT
Civil Twilight 6:10 AM CDT 8:32 PM CDT
Nautical Twilight 5:37 AM CDT 9:05 PM CDT
Astronomical Twilight 5:02 AM CDT 9:39 PM CDT
Moon 10:31 PM CDT (8/19) 10:15 AM CDT (8/19)
Length of Visible Light 14h 21m
Length of Day
13h 27m
Waning Gibbous, 85% of the Moon is Illuminated
Aug 19
Waning Gibbous
Aug 23
Last Quarter
Aug 30
New
Sep 5
First Quarter
Sep 13
Full

Hourly Weather History & Observations

Time (CDT) Temp. Heat Index Dew Point Humidity Pressure Visibility Wind Dir Wind Speed Gust Speed Precip Events Conditions
12:53 AM 78.1 °F - 70.0 °F 76% 29.92 in 10.0 mi SSE 4.6 mph - N/A   Overcast
1:53 AM 75.9 °F - 70.0 °F 82% 29.91 in 10.0 mi SSE 6.9 mph - N/A   Clear
2:53 AM 77.0 °F - 69.1 °F 76% 29.91 in 10.0 mi South 8.1 mph - N/A   Partly Cloudy
3:53 AM 75.9 °F - 69.1 °F 79% 29.91 in 10.0 mi South 6.9 mph - N/A   Mostly Cloudy
4:53 AM 77.0 °F - 69.1 °F 76% 29.93 in 10.0 mi SSE 4.6 mph - N/A   Mostly Cloudy
5:53 AM 75.9 °F - 70.0 °F 82% 29.94 in 10.0 mi Variable 4.6 mph - N/A   Partly Cloudy
6:53 AM 75.0 °F - 70.0 °F 84% 29.96 in 10.0 mi Variable 4.6 mph - N/A   Clear
7:53 AM 78.1 °F - 71.1 °F 79% 29.97 in 10.0 mi Variable 3.5 mph - N/A   Clear
8:53 AM 82.0 °F 87.9 °F 73.9 °F 76% 29.98 in 10.0 mi Variable 4.6 mph - N/A   Clear
9:53 AM 86.0 °F 95.1 °F 75.0 °F 70% 29.99 in 10.0 mi Variable 4.6 mph - N/A   Clear
10:53 AM 87.1 °F 96.3 °F 75.0 °F 67% 29.99 in 10.0 mi Variable 4.6 mph - N/A   Clear
11:53 AM 90.0 °F 102.5 °F 77.0 °F 65% 29.99 in 10.0 mi Variable 4.6 mph - N/A   Clear
12:53 PM 91.0 °F 102.9 °F 75.9 °F 61% 29.98 in 10.0 mi SW 9.2 mph - N/A   Clear
1:53 PM 91.9 °F 103.9 °F 75.9 °F 59% 29.97 in 10.0 mi South 8.1 mph - N/A   Clear
2:53 PM 91.9 °F 103.9 °F 75.9 °F 59% 29.96 in 10.0 mi South 8.1 mph - N/A   Clear
3:53 PM 93.0 °F 105.3 °F 75.9 °F 57% 29.94 in 10.0 mi South 4.6 mph - N/A   Clear
4:53 PM 93.0 °F 104.6 °F 75.0 °F 56% 29.94 in 10.0 mi Variable 5.8 mph - N/A   Clear
5:53 PM 91.9 °F 105.9 °F 77.0 °F 62% 29.93 in 10.0 mi SSE 4.6 mph - N/A   Clear
6:53 PM 91.0 °F 101.6 °F 75.0 °F 59% 29.92 in 10.0 mi SE 5.8 mph - N/A   Clear
7:53 PM 87.1 °F 97.3 °F 75.9 °F 69% 29.92 in 10.0 mi SSE 3.5 mph - N/A   Clear
8:53 PM 84.9 °F 94.1 °F 75.9 °F 74% 29.93 in 10.0 mi SSE 4.6 mph - N/A   Clear
9:53 PM 82.9 °F 90.8 °F 75.9 °F 79% 29.95 in 10.0 mi SSE 5.8 mph - N/A   Clear
10:53 PM 82.9 °F 90.2 °F 75.0 °F 77% 29.97 in 10.0 mi South 6.9 mph - N/A   Clear
11:53 PM 81.0 °F 84.9 °F 71.1 °F 72% 29.97 in 10.0 mi SSE 6.9 mph - N/A   Clear